www.pogodaiklimat.ru

Погода и климат >> Архив погоды >> Россия >> Приморский край >> Лазо


ПОГОДА в Лазо

  • Прогноз погоды в Лазо
  • Монитор погоды в Лазо

АРХИВ ПОГОДЫ в Лазо

Время (UTC), дата Ветер
(напр.,м/с)
 
Видим.   Явления Облачность Т
(С)
Тd
(С)
f
(%)
Тe
(С)
Тes
(С)
Комфортность P
(гПа)
Po
(гПа)
Тmin
(С)
Tmax
(С)
R
(мм)
R24
(мм)
S
(см)
09 10.07 ЮВ 1 50 км ясно +23.5 +6.3 33 +24 +26 комфорт 1014.7 986.7 +25.4
12 10.07 СВ 1 50 км 8/0
[Ci fib]
+15.0 +12.3 84 +16 +16 1015.2 986.3
15 10.07 штиль 0 50 км 10 баллов +11.7 +10.6 93 +11 +11 1017.2 988.0
18 10.07 С 1 50 км 10 баллов +10.8 +10.0 95 +10 +10 1016.0 986.7
21 10.07 СВ 1 10 км 10/10 600 м
[St]
+10.5 +9.9 96 +10 +10 1015.1 985.7 +10.4
00 11.07 СЗ 1 50 км 9/0
[Ac trans Cs]
+17.7 +13.3 75 +19 +28 1013.9 985.3
03 11.07 СВ 1 50 км 7 баллов +21.9 +13.3 58 +25 +31 комфорт 1012.1 984.0
06 11.07 ЮВ 1 50 км 9 баллов +22.8 +13.8 57 +26 +28 жарко 1010.6 982.7
09 11.07 СВ 2 50 км 9/3 600 м
[Cu hum Ac trans Ci fib]
+19.0 +14.3 74 +21 +21 комфорт 1009.6 981.3 +24.8
12 11.07 С 1 50 км 8/0
[Ac trans Ci fib]
+16.5 +13.9 85 +17 +17 1009.2 980.6
15 11.07 штиль 0 50 км 10 баллов +15.4 +13.8 90 +15 +15 1008.6 980.0
18 11.07 штиль 0 10 км слаб. дождь 10 баллов +14.9 +13.8 93 +15 +15 1007.3 978.7
21 11.07 штиль 0 10 км слаб. дождь 10/10 600 м
[Frnb Ns]
+15.0 +14.1 94 +15 +15 1004.8 976.2 +14.9 2
00 12.07 штиль 0 10 км слаб. дождь 10/10 600 м
[Frnb Ns]
+16.6 +15.2 91 +16 +16 1004.2 975.8
03 12.07 С 1 10 км в посл. час дождь 10/10 660 м
[Sc]
+18.2 +16.0 87 +20 +20 1002.4 974.2
06 12.07 штиль 0 10 км слаб. дождь 10 баллов +17.8 +16.1 90 +18 +18 1002.9 974.7
09 12.07 В 1 20 км {дождь} 10/5 600 м
[Sc As op]
+17.9 +16.4 91 +19 +19 1001.4 973.3 +18.7 4
12 12.07 штиль 0 10 км слаб. дождь 10/10 600 м
[Frnb Ns]
+16.3 +15.5 95 +16 +16 1002.0 973.6
15 12.07 штиль 0 10 км слаб. дождь 10 баллов +15.6 +15.0 96 +15 +15 1003.1 974.7
18 12.07 штиль 0 10 км {дождь} 10/10 630 м
[Sc]
+15.2 +14.5 96 +15 +15 1001.4 972.9
21 12.07 штиль 0 10 км слаб. дождь 10/10 600 м
[Frnb Ns]
+15.4 +14.5 94 +15 +15 1002.3 973.8 +15.1 8
00 13.07 штиль 0 10 км слаб. дождь 10/10 600 м
[Frnb Ns]
+16.8 +15.9 94 +17 +17 1002.7 974.3
03 13.07 штиль 0 10 км {дождь} 10/10 630 м
[Sc]
+18.0 +16.5 91 +18 +18 1002.6 974.3
06 13.07 штиль 0 10 км {дождь} 10/10 660 м
[Sc]
+19.0 +17.1 89 +20 +20 1004.1 976.0
09 13.07 штиль 0 20 км 10/10 720 м
[Sc]
+19.1 +17.1 88 +21 +21 комфорт 1002.5 974.4 +19.6 2
12 13.07 штиль 0 20 км 10/10 720 м
[Sc]
+17.0 +15.7 92 +17 +17 1004.3 975.9
18 13.07 штиль 0 20 км 10 баллов +15.7 +14.9 95 +15 +15 1005.8 977.3
21 13.07 штиль 0 20 км 10/10 800 м
[Sc]
+15.9 +15.0 94 +16 +16 1004.6 976.1 +15.5
00 14.07 штиль 0 50 км 10/8 800 м
[Sc As op]
+19.1 +15.9 82 +20 +21 1004.4 976.2
03 14.07 штиль 0 50 км 10 баллов +21.6 +15.7 69 +25 +25 комфорт 1005.2 977.3
06 14.07 В 1 50 км 9 баллов +23.0 +16.5 67 +28 +29 душно 1005.0 977.3
09 14.07 ЮВ 1 50 км {ливн. осадки} 10/5 600 м
[Cb cap As op]
+19.7 +16.1 80 +23 +23 комфорт 1005.3 977.3 +23.6 0.0
12 14.07 Ю 1 20 км {ливн. осадки} 10/8 720 м
[Cb cap As op]
+16.6 +15.6 94 +17 +17 1007.0 978.5
15 14.07 штиль 0 20 км 10 баллов +15.8 +15.0 95 +16 +16 1008.5 980.0
18 14.07 штиль 0 20 км 10 баллов +16.0 +15.0 94 +16 +16 1009.8 981.3
21 14.07 штиль 0 20 км 10/10 720 м
[Sc]
+16.1 +15.1 94 +16 +16 1009.7 981.0 +15.8
00 15.07 штиль 0 10 км {морось} 10/10 630 м
[St]
+17.6 +15.9 90 +18 +18 1011.0 982.5
03 15.07 С 1 10 км слаб. морось 10 баллов +17.5 +16.0 91 +19 +19 1012.5 984.0
06 15.07 штиль 0 10 км {морось} 10/10 630 м
[St]
+18.0 +16.6 92 +18 +18 1012.0 983.5
09 15.07 штиль 0 20 км 10/10 800 м
[Sc]
+17.7 +15.9 89 +18 +18 1013.8 985.3 +19.1 1
12 15.07 штиль 0 10 км слаб. дождь 10/10 600 м
[Frnb Ns]
+16.2 +15.3 94 +16 +16 1014.1 985.4
15 15.07 штиль 0 10 км слаб. дождь 10 баллов +15.7 +14.9 95 +15 +15 1015.4 986.7
18 15.07 штиль 0 10 км слаб. дождь 10 баллов +15.3 +14.7 96 +15 +15 1015.5 986.7
21 15.07 штиль 0 10 км {дождь} 10/10 630 м
[Sc]
+15.2 +14.5 96 +15 +15 1015.2 986.3 +15.1 2
00 16.07 штиль 0 10 км слаб. дождь 10/10 600 м
[Frnb Ns]
+16.0 +15.3 96 +16 +16 1015.5 986.7
03 16.07 штиль 0 10 км {дождь} 10/10 630 м
[Sc]
+18.4 +15.5 83 +19 +19 1014.8 986.2
06 16.07 штиль 0 20 км {дождь} 10/10 720 м
[Sc]
+21.1 +15.6 71 +24 +24 комфорт 1014.9 986.7
09 16.07 штиль 0 20 км 10/10 720 м
[Sc]
+19.2 +15.3 78 +21 +21 комфорт 1013.6 985.3 +21.3 0.3
12 16.07 штиль 0 20 км 10/10 750 м
[Sc]
+17.6 +15.4 87 +18 +18 1013.7 985.1
15 16.07 В 1 50 км 9 баллов +15.5 +14.5 94 +16 +16 1015.5 986.7
18 16.07 СВ 1 50 км 10 баллов +14.8 +13.8 94 +15 +15 1014.1 985.3
21 16.07 штиль 0 10 км 10/10 630 м
[St]
+15.1 +14.3 95 +15 +15 1013.5 984.6 +14.6
00 17.07 Ю 1 50 км 8/5 600 м
[Cu hum Ci fib]
+18.8 +15.7 82 +21 +27 комфорт 1012.6 984.1
03 17.07 Ю 1 50 км 7 баллов +22.3 +16.1 68 +26 +33 жарко 1012.0 984.0
06 17.07 ЮЗ 1 50 км 7 баллов +25.3 +18.0 64 +30 +34 душно 1010.3 982.7

 

Местоположение метеостанции Лазо (Приморский край, Россия): широта 43.40 долгота 133.80 высота над уровнем моря 245 м.

В архиве по умолчанию представлена погода в Лазо за последнюю неделю. Архивные данные за месяц целиком и за предыдущие месяцы, начиная с января 2011 года, Вы можете получить, выбрав интересующий диапазон дат из раскрывающегося списка и нажав кнопку "Ввод!".


*Определитесь, кто Вы:
робот инопланетянин человек

Внимание! Время в таблицах - всемирное. Для получения местного времени необходимо прибавить поправку, которая равна 10 ч.

Смотрите также архив погоды в соседних городах и на ближайших метеорологических станциях:

Погода в Лучегорске (Приморский край, Россия) (47 км)
Погода в Преображении (Приморский край, Россия) (56 км)
Погода в Партизанске (Приморский край, Россия) (71 км)
Погода в Чугуевке (Приморский край, Россия) (83 км)
Погода в Анучино (Приморский край, Россия) (90 км)
Погода в Находке (Приморский край, Россия) (105 км)
Погода в Многоудобном (Приморский край, Россия) (108 км)
Погода в Ольге (Приморский край, Россия) (127 км)
Погода в Кавалерово (Приморский край, Россия) (135 км)
Погода в Дальнегорске (Приморский край, Россия) (144 км)

Пояснения к столбцам:

Ветер - указаны скорость ветра в м/с - средняя за 10 мин, порывы в срок и между сроками (в фигурных скобках) и направление, откуда дует ветер: С - северный, СВ - северо-восточный, В - восточный, ЮВ - юго-восточный, Ю - южный, ЮЗ - юго-западный, З - западный, СЗ - северо-западный.
Видимость - горизонтальная дальность видимости в метрах или километрах. При видимости от 1 до 10 км при отсутствии осадков обычно наблюдается дымка, при ухудшении видимости до 1 км и менее - туман. В сухую погоду видимость может ухудшаться дымом, пылью или мглою.
Явления - указаны атмосферные явления, наблюдавшиеся в срок или в последний час перед сроком; фигурными скобками обозначены явления, наблюдавшиеся между сроками (за 1-3 часа до срока); квадратными скобками обозначены град или гололедные отложения с указанием их диаметра в мм.
Облачность - указаны через наклонную черту общая и нижняя облачность в баллах и высота нижней границы облаков в метрах; квадратными скобками обозначены формы облаков: Ci - перистые, Cs - перисто-слоистые, Cc - перисто-кучевые, Ac - высококучевые, As - высокослоистые, Sc - слоисто-кучевые, Ns - слоисто-дождевые, Cu - кучевые, Cb - кучево-дождевые. Подробнее классификацию облаков см. в Атласе облаков (PDF).
T - Температура воздуха - температура, измеренная на высоте 2 м над землей.
Td - Температура точки росы - температура, при понижении до которой содержащийся в воздухе водяной пар достигнет насыщения.
f - Относительная влажность воздуха - влажноcть воздуха, измеренная на высоте 2 м над землей.
Te - Эффективная температура - температура, которую ощущает одетый по сезону человек в тени. Характеристика душности погоды. При расчете учитывается влияние влажности воздуха и скорости ветра на теплоощущения человека.
Tes - Эффективная температура на солнце - температура, которую ощущает человек, с поправкой на солнечный нагрев. Характеристика знойности погоды. Зависит от высоты солнца над горизонтом, облачности и скорости ветра. Ночью, в пасмурную погоду, а также при ветре 12 м/с и более поправка равна нулю.
P - Атмосферное давление - приведенное к уровню моря атмосферное давление.
Po - Атмосферное давление - измеренное на уровне метеостанции атмосферное давление.
Tmin - Минимальная температура - минимум температуры воздуха на высоте 2 м над землей.
Tmax - Максимальная температура - максимум температуры воздуха на высоте 2 м над землей.
R - Количество осадков - Количество выпавших осадков за период времени, мм. При наведении курсора мыши на число - период времени, за который выпало указанное количество осадков.
R24 - Количество осадков - Количество выпавших осадков за 24 часа, мм.
S - Снежный покров - Высота снежного покрова, см. При наведении курсора мыши на число - состояние снежного покрова и степень покрытия местности в баллах.